,,PressureMeas_1m,,PRMeasQMR101_1,,RHStat155_1m_1,,SRMeasQMS101R_1m,,TAStat155_1m_1,,GenWind_1,,GenWind_1,
2019-10-06, 00:00:06,VALID,918.588,VALID,0.0,VALID,99.241,VALID,0.008,VALID,19.837,INVALID,360.0,VALID,0.0,
2019-10-06, 00:01:06,VALID,918.615,VALID,0.0,VALID,99.257,VALID,-0.007,VALID,19.835,INVALID,360.0,VALID,0.0,
2019-10-06, 00:02:06,VALID,918.597,VALID,0.0,VALID,99.302,VALID,-0.002,VALID,19.863,INVALID,360.0,VALID,0.0,
2019-10-06, 00:03:06,VALID,918.605,VALID,0.0,VALID,99.322,VALID,-0.014,VALID,19.893,INVALID,360.0,VALID,0.0,
2019-10-06, 00:04:06,VALID,918.609,VALID,0.0,VALID,99.292,VALID,0.005,VALID,19.877,INVALID,360.0,VALID,0.0,
2019-10-06, 00:05:06,VALID,918.606,VALID,0.0,VALID,99.29,VALID,0.007,VALID,19.883,INVALID,360.0,VALID,0.0,
2019-10-06, 00:06:06,VALID,918.607,VALID,0.0,VALID,99.236,VALID,0.013,VALID,19.859,INVALID,360.0,VALID,0.0,
2019-10-06, 00:07:06,VALID,918.607,VALID,0.0,VALID,99.214,VALID,0.019,VALID,19.858,INVALID,360.0,VALID,0.0,
2019-10-06, 00:08:06,VALID,918.627,VALID,0.0,VALID,99.209,VALID,0.03,VALID,19.863,INVALID,360.0,VALID,0.0,
2019-10-06, 00:09:06,VALID,918.613,VALID,0.0,VALID,99.141,VALID,0.021,VALID,19.836,INVALID,360.0,VALID,0.0,
2019-10-06, 00:10:06,VALID,918.603,VALID,0.0,VALID,99.148,VALID,0.02,VALID,19.858,INVALID,360.0,VALID,0.0,
2019-10-06, 00:11:06,VALID,918.617,VALID,0.0,VALID,99.203,VALID,0.007,VALID,19.895,INVALID,360.0,VALID,0.0,
2019-10-06, 00:12:06,VALID,918.646,VALID,0.0,VALID,99.206,VALID,0.022,VALID,19.909,INVALID,360.0,VALID,0.0,
2019-10-06, 00:13:06,VALID,918.655,VALID,0.0,VALID,99.118,VALID,0.025,VALID,19.881,INVALID,360.0,VALID,0.0,
2019-10-06, 00:14:06,VALID,918.657,VALID,0.0,VALID,99.175,VALID,0.026,VALID,19.924,INVALID,360.0,VALID,0.0,
2019-10-06, 00:15:06,VALID,918.663,VALID,0.0,VALID,99.173,VALID,0.026,VALID,19.947,INVALID,360.0,VALID,0.0,
2019-10-06, 00:16:06,VALID,918.639,VALID,0.0,VALID,99.128,VALID,0.024,VALID,19.963,INVALID,360.0,VALID,0.0,
2019-10-06, 00:17:06,VALID,918.629,VALID,0.0,VALID,99.076,VALID,0.021,VALID,19.959,INVALID,360.0,VALID,0.0,
2019-10-06, 00:18:06,VALID,918.619,VALID,0.0,VALID,98.919,VALID,0.033,VALID,19.898,INVALID,360.0,VALID,0.0,
2019-10-06, 00:19:06,VALID,918.617,VALID,0.0,VALID,98.873,VALID,0.035,VALID,19.891,VALID,38.0,VALID,0.663,
2019-10-06, 00:20:06,VALID,918.62,VALID,0.0,VALID,98.794,VALID,0.019,VALID,19.866,VALID,33.0,VALID,0.894,
2019-10-06, 00:21:06,VALID,918.626,VALID,0.0,VALID,98.803,VALID,-0.053,VALID,19.869,VALID,355.0,VALID,0.571,
2019-10-06, 00:22:06,VALID,918.63,VALID,0.0,VALID,98.82,VALID,-0.056,VALID,19.864,VALID,346.0,VALID,0.475,
2019-10-06, 00:23:06,VALID,918.646,VALID,0.0,VALID,98.798,VALID,-0.072,VALID,19.856,VALID,345.0,VALID,0.239,
2019-10-06, 00:24:06,VALID,918.651,VALID,0.0,VALID,98.827,VALID,-0.074,VALID,19.86,INVALID,360.0,VALID,0.018,
2019-10-06, 00:25:06,VALID,918.652,VALID,0.0,VALID,98.804,VALID,-0.072,VALID,19.849,INVALID,360.0,VALID,0.0,
2019-10-06, 00:26:06,VALID,918.667,VALID,0.0,VALID,98.873,VALID,-0.063,VALID,19.869,INVALID,360.0,VALID,0.0,
2019-10-06, 00:27:06,VALID,918.656,VALID,0.0,VALID,98.923,VALID,-0.066,VALID,19.892,INVALID,360.0,VALID,0.0,
2019-10-06, 00:28:06,VALID,918.643,VALID,0.0,VALID,98.981,VALID,-0.069,VALID,19.924,VALID,329.0,VALID,0.0,
2019-10-06, 00:29:06,VALID,918.647,VALID,0.0,VALID,99.015,VALID,-0.088,VALID,19.957,VALID,329.0,VALID,0.0,
2019-10-06, 00:30:06,VALID,918.626,VALID,0.0,VALID,99.016,VALID,-0.076,VALID,19.991,VALID,329.0,VALID,0.0,
2019-10-06, 00:31:06,VALID,918.598,VALID,0.0,VALID,98.978,VALID,-0.063,VALID,19.995,VALID,329.0,VALID,0.0,
2019-10-06, 00:32:06,VALID,918.604,VALID,0.0,VALID,98.95,VALID,-0.054,VALID,20.011,INVALID,360.0,VALID,0.0,
2019-10-06, 00:33:06,VALID,918.621,VALID,0.0,VALID,98.924,VALID,-0.064,VALID,20.014,INVALID,360.0,VALID,0.0,
2019-10-06, 00:34:06,VALID,918.63,VALID,0.0,VALID,98.831,VALID,-0.075,VALID,19.986,INVALID,360.0,VALID,0.0,
2019-10-06, 00:35:06,VALID,918.611,VALID,0.0,VALID,98.681,VALID,-0.052,VALID,19.922,INVALID,360.0,VALID,0.0,
2019-10-06, 00:36:06,VALID,918.617,VALID,0.0,VALID,98.545,VALID,-0.029,VALID,19.858,INVALID,360.0,VALID,0.0,
2019-10-06, 00:37:06,VALID,918.604,VALID,0.0,VALID,98.656,VALID,-0.015,VALID,19.889,INVALID,360.0,VALID,0.0,
2019-10-06, 00:38:06,VALID,918.579,VALID,0.0,VALID,98.683,VALID,-0.024,VALID,19.886,INVALID,360.0,VALID,0.0,
2019-10-06, 00:39:06,VALID,918.553,VALID,0.0,VALID,98.604,VALID,-0.013,VALID,19.878,INVALID,360.0,VALID,0.0,
2019-10-06, 00:40:06,VALID,918.55,VALID,0.0,VALID,98.695,VALID,-0.011,VALID,19.935,INVALID,360.0,VALID,0.0,
2019-10-06, 00:41:06,VALID,918.535,VALID,0.0,VALID,98.637,VALID,-0.006,VALID,19.954,INVALID,360.0,VALID,0.0,
2019-10-06, 00:42:06,VALID,918.521,VALID,0.0,VALID,98.539,VALID,-0.017,VALID,19.951,INVALID,360.0,VALID,0.0,
2019-10-06, 00:43:06,VALID,918.505,VALID,0.0,VALID,98.379,VALID,-0.011,VALID,19.929,INVALID,360.0,VALID,0.0,
2019-10-06, 00:44:06,VALID,918.495,VALID,0.0,VALID,98.295,VALID,-0.02,VALID,19.932,INVALID,360.0,VALID,0.0,
2019-10-06, 00:45:06,VALID,918.469,VALID,0.0,VALID,98.138,VALID,-0.01,VALID,19.907,INVALID,360.0,VALID,0.0,
2019-10-06, 00:46:06,VALID,918.462,VALID,0.0,VALID,98.018,VALID,-0.019,VALID,19.876,INVALID,360.0,VALID,0.0,
2019-10-06, 00:47:06,VALID,918.441,VALID,0.0,VALID,97.991,VALID,-0.006,VALID,19.856,INVALID,360.0,VALID,0.0,
2019-10-06, 00:48:06,VALID,918.434,VALID,0.0,VALID,97.99,VALID,0.007,VALID,19.849,INVALID,360.0,VALID,0.0,
2019-10-06, 00:49:06,VALID,918.433,VALID,0.0,VALID,98.013,VALID,-0.016,VALID,19.82,INVALID,360.0,VALID,0.0,
2019-10-06, 00:50:06,VALID,918.406,VALID,0.0,VALID,98.073,VALID,-0.019,VALID,19.797,INVALID,360.0,VALID,0.0,
2019-10-06, 00:51:06,VALID,918.399,VALID,0.0,VALID,98.143,VALID,-0.004,VALID,19.808,INVALID,360.0,VALID,0.0,
2019-10-06, 00:52:06,VALID,918.357,VALID,0.0,VALID,98.28,VALID,-0.018,VALID,19.844,INVALID,360.0,VALID,0.0,
2019-10-06, 00:53:06,VALID,918.336,VALID,0.0,VALID,98.057,VALID,-0.018,VALID,19.812,INVALID,360.0,VALID,0.0,
2019-10-06, 00:54:06,VALID,918.301,VALID,0.0,VALID,97.867,VALID,-0.011,VALID,19.809,INVALID,360.0,VALID,0.0,
2019-10-06, 00:55:06,VALID,918.281,VALID,0.0,VALID,97.688,VALID,-0.01,VALID,19.791,INVALID,360.0,VALID,0.0,
2019-10-06, 00:56:06,VALID,918.236,VALID,0.0,VALID,97.578,VALID,-0.014,VALID,19.792,INVALID,360.0,VALID,0.0,
2019-10-06, 00:57:06,VALID,918.203,VALID,0.0,VALID,97.456,VALID,-0.003,VALID,19.792,INVALID,360.0,VALID,0.0,
2019-10-06, 00:58:06,VALID,918.204,VALID,0.0,VALID,97.379,VALID,-0.02,VALID,19.79,INVALID,360.0,VALID,0.0,
2019-10-06, 00:59:06,VALID,918.159,VALID,0.0,VALID,97.362,VALID,-0.023,VALID,19.779,INVALID,360.0,VALID,0.0,
2019-10-06, 01:00:06,VALID,918.138,VALID,0.0,VALID,97.259,VALID,-0.02,VALID,19.745,INVALID,360.0,VALID,0.0,
2019-10-06, 01:01:06,VALID,918.119,VALID,0.0,VALID,97.365,VALID,-0.004,VALID,19.754,INVALID,360.0,VALID,0.0,
2019-10-06, 01:02:06,VALID,918.119,VALID,0.0,VALID,97.366,VALID,0.012,VALID,19.744,INVALID,360.0,VALID,0.0,
2019-10-06, 01:03:06,VALID,918.093,VALID,0.0,VALID,97.32,VALID,0.015,VALID,19.75,INVALID,360.0,VALID,0.0,
2019-10-06, 01:04:06,VALID,918.08,VALID,0.0,VALID,97.296,VALID,-0.002,VALID,19.748,INVALID,360.0,VALID,0.0,
2019-10-06, 01:05:06,VALID,918.032,VALID,0.0,VALID,97.282,VALID,-0.006,VALID,19.727,INVALID,360.0,VALID,0.0,
2019-10-06, 01:06:06,VALID,918.023,VALID,0.0,VALID,97.344,VALID,0.017,VALID,19.72,INVALID,360.0,VALID,0.0,
2019-10-06, 01:07:06,VALID,918.019,VALID,0.0,VALID,97.279,VALID,0.011,VALID,19.678,INVALID,360.0,VALID,0.0,
2019-10-06, 01:08:06,VALID,917.989,VALID,0.0,VALID,97.329,VALID,0.006,VALID,19.628,INVALID,360.0,VALID,0.0,
2019-10-06, 01:09:06,VALID,917.972,VALID,0.0,VALID,97.458,VALID,-0.002,VALID,19.593,INVALID,360.0,VALID,0.0,
2019-10-06, 01:10:06,VALID,917.955,VALID,0.0,VALID,97.668,VALID,0.015,VALID,19.595,INVALID,360.0,VALID,0.0,
2019-10-06, 01:11:06,VALID,917.954,VALID,0.0,VALID,97.741,VALID,0.012,VALID,19.6,INVALID,360.0,VALID,0.0,
2019-10-06, 01:12:06,VALID,917.95,VALID,0.0,VALID,97.692,VALID,-0.005,VALID,19.581,INVALID,360.0,VALID,0.0,
2019-10-06, 01:13:06,VALID,917.938,VALID,0.0,VALID,97.715,VALID,0.013,VALID,19.576,INVALID,360.0,VALID,0.0,
2019-10-06, 01:14:06,VALID,917.914,VALID,0.0,VALID,97.679,VALID,0.014,VALID,19.571,INVALID,360.0,VALID,0.0,
2019-10-06, 01:15:06,VALID,917.889,VALID,0.0,VALID,97.616,VALID,0.007,VALID,19.558,INVALID,360.0,VALID,0.0,
2019-10-06, 01:16:06,VALID,917.852,VALID,0.0,VALID,97.512,VALID,-0.014,VALID,19.54,INVALID,360.0,VALID,0.0,
2019-10-06, 01:17:06,VALID,917.823,VALID,0.0,VALID,97.411,VALID,-0.014,VALID,19.494,INVALID,360.0,VALID,0.0,
2019-10-06, 01:18:06,VALID,917.809,VALID,0.0,VALID,97.332,VALID,0.008,VALID,19.426,INVALID,360.0,VALID,0.0,
2019-10-06, 01:19:06,VALID,917.798,VALID,0.0,VALID,97.704,VALID,-0.008,VALID,19.411,INVALID,360.0,VALID,0.0,
2019-10-06, 01:20:06,VALID,917.758,VALID,0.0,VALID,97.993,VALID,-0.003,VALID,19.384,INVALID,360.0,VALID,0.0,
2019-10-06, 01:21:06,VALID,917.763,VALID,0.0,VALID,98.144,VALID,0.006,VALID,19.351,INVALID,360.0,VALID,0.0,
2019-10-06, 01:22:06,VALID,917.764,VALID,0.0,VALID,98.311,VALID,0.015,VALID,19.334,INVALID,360.0,VALID,0.0,
2019-10-06, 01:23:06,VALID,917.778,VALID,0.0,VALID,98.372,VALID,0.027,VALID,19.32,INVALID,360.0,VALID,0.0,
2019-10-06, 01:24:06,VALID,917.79,VALID,0.0,VALID,98.499,VALID,0.018,VALID,19.319,INVALID,360.0,VALID,0.0,
2019-10-06, 01:25:06,VALID,917.793,VALID,0.0,VALID,98.543,VALID,0.008,VALID,19.312,VALID,79.0,VALID,0.0,
2019-10-06, 01:26:06,VALID,917.779,VALID,0.0,VALID,98.61,VALID,0.024,VALID,19.301,VALID,93.0,VALID,0.0,
2019-10-06, 01:27:06,VALID,917.765,VALID,0.0,VALID,98.631,VALID,0.035,VALID,19.283,VALID,93.0,VALID,0.0,
2019-10-06, 01:28:06,VALID,917.762,VALID,0.0,VALID,98.689,VALID,0.008,VALID,19.275,VALID,100.0,VALID,0.0,
2019-10-06, 01:29:06,VALID,917.752,VALID,0.0,VALID,98.729,VALID,0.012,VALID,19.261,VALID,101.0,VALID,0.0,
2019-10-06, 01:30:06,VALID,917.726,VALID,0.0,VALID,98.733,VALID,0.009,VALID,19.228,VALID,101.0,VALID,0.0,
2019-10-06, 01:31:06,VALID,917.711,VALID,0.0,VALID,98.778,VALID,0.01,VALID,19.219,VALID,101.0,VALID,0.0,
2019-10-06, 01:32:06,VALID,917.687,VALID,0.0,VALID,98.811,VALID,0.01,VALID,19.218,VALID,101.0,VALID,0.0,
2019-10-06, 01:33:06,VALID,917.674,VALID,0.0,VALID,98.853,VALID,0.03,VALID,19.225,VALID,101.0,VALID,0.0,
2019-10-06, 01:34:06,VALID,917.675,VALID,0.0,VALID,98.898,VALID,0.025,VALID,19.232,VALID,101.0,VALID,0.0,
2019-10-06, 01:35:06,VALID,917.67,VALID,0.0,VALID,98.904,VALID,0.026,VALID,19.229,VALID,114.0,VALID,0.0,
2019-10-06, 01:36:06,VALID,917.666,VALID,0.0,VALID,98.881,VALID,-0.005,VALID,19.223,VALID,124.0,VALID,0.0,
2019-10-06, 01:37:06,VALID,917.656,VALID,0.0,VALID,98.891,VALID,-0.005,VALID,19.236,VALID,120.0,VALID,0.0,
2019-10-06, 01:38:06,VALID,917.648,VALID,0.0,VALID,98.832,VALID,-0.014,VALID,19.246,VALID,133.0,VALID,0.0,
2019-10-06, 01:39:06,VALID,917.645,VALID,0.0,VALID,98.77,VALID,-0.025,VALID,19.272,VALID,99.0,VALID,0.0,
2019-10-06, 01:40:06,VALID,917.628,VALID,0.0,VALID,98.705,VALID,-0.022,VALID,19.291,VALID,92.0,VALID,0.0,
2019-10-06, 01:41:06,VALID,917.625,VALID,0.0,VALID,98.616,VALID,-0.008,VALID,19.29,VALID,92.0,VALID,0.0,
2019-10-06, 01:42:06,VALID,917.623,VALID,0.0,VALID,98.504,VALID,-0.021,VALID,19.273,VALID,92.0,VALID,0.0,
2019-10-06, 01:43:06,VALID,917.632,VALID,0.0,VALID,98.437,VALID,-0.025,VALID,19.267,VALID,92.0,VALID,0.0,
2019-10-06, 01:44:06,VALID,917.651,VALID,0.0,VALID,98.451,VALID,-0.014,VALID,19.294,VALID,92.0,VALID,0.0,
2019-10-06, 01:45:06,VALID,917.648,VALID,0.0,VALID,98.447,VALID,-0.022,VALID,19.304,VALID,92.0,VALID,0.0,
2019-10-06, 01:46:06,VALID,917.662,VALID,0.0,VALID,98.408,VALID,-0.013,VALID,19.313,VALID,92.0,VALID,0.0,
2019-10-06, 01:47:06,VALID,917.64,VALID,0.0,VALID,98.383,VALID,-0.014,VALID,19.311,VALID,82.0,VALID,0.0,
2019-10-06, 01:48:06,VALID,917.634,VALID,0.0,VALID,98.28,VALID,-0.021,VALID,19.294,VALID,81.0,VALID,0.0,
2019-10-06, 01:49:06,VALID,917.618,VALID,0.0,VALID,98.359,VALID,-0.017,VALID,19.325,VALID,81.0,VALID,0.0,
2019-10-06, 01:50:06,VALID,917.593,VALID,0.0,VALID,98.383,VALID,-0.026,VALID,19.345,VALID,77.0,VALID,0.0,
2019-10-06, 01:51:06,VALID,917.578,VALID,0.0,VALID,98.331,VALID,0.022,VALID,19.349,VALID,72.0,VALID,0.0,
2019-10-06, 01:52:06,VALID,917.57,VALID,0.0,VALID,98.255,VALID,0.019,VALID,19.329,VALID,72.0,VALID,0.0,
2019-10-06, 01:53:06,VALID,917.551,VALID,0.0,VALID,98.341,VALID,0.026,VALID,19.367,VALID,72.0,VALID,0.0,
2019-10-06, 01:54:06,VALID,917.535,VALID,0.0,VALID,98.268,VALID,0.005,VALID,19.354,VALID,72.0,VALID,0.0,
2019-10-06, 01:55:06,VALID,917.533,VALID,0.0,VALID,98.125,VALID,0.007,VALID,19.317,VALID,72.0,VALID,0.0,
2019-10-06, 01:56:06,VALID,917.524,VALID,0.0,VALID,98.067,VALID,0.005,VALID,19.286,VALID,72.0,VALID,0.0,
2019-10-06, 01:57:06,VALID,917.518,VALID,0.0,VALID,97.942,VALID,0.024,VALID,19.245,VALID,72.0,VALID,0.0,
2019-10-06, 01:58:06,VALID,917.486,VALID,0.0,VALID,97.963,VALID,0.015,VALID,19.216,VALID,69.0,VALID,0.0,
2019-10-06, 01:59:06,VALID,917.488,VALID,0.0,VALID,98.089,VALID,0.031,VALID,19.202,VALID,66.0,VALID,0.0,
2019-10-06, 02:00:06,VALID,917.466,VALID,0.0,VALID,98.255,VALID,0.019,VALID,19.193,INVALID,360.0,VALID,0.0,
2019-10-06, 02:01:06,VALID,917.452,VALID,0.0,VALID,98.364,VALID,0.023,VALID,19.183,INVALID,360.0,VALID,0.0,
2019-10-06, 02:02:06,VALID,917.429,VALID,0.0,VALID,98.539,VALID,0.016,VALID,19.204,VALID,76.0,VALID,0.0,
2019-10-06, 02:03:06,VALID,917.393,VALID,0.0,VALID,98.579,VALID,0.026,VALID,19.195,VALID,78.0,VALID,0.0,
2019-10-06, 02:04:06,VALID,917.398,VALID,0.0,VALID,98.657,VALID,0.027,VALID,19.199,VALID,80.0,VALID,0.0,
2019-10-06, 02:05:06,VALID,917.39,VALID,0.0,VALID,98.714,VALID,0.034,VALID,19.181,VALID,90.0,VALID,0.0,
2019-10-06, 02:06:06,VALID,917.385,VALID,0.0,VALID,98.701,VALID,0.002,VALID,19.171,VALID,94.0,VALID,0.0,
2019-10-06, 02:07:06,VALID,917.393,VALID,0.0,VALID,98.679,VALID,-0.002,VALID,19.15,VALID,94.0,VALID,0.0,
2019-10-06, 02:08:06,VALID,917.397,VALID,0.0,VALID,98.714,VALID,0.008,VALID,19.143,VALID,91.0,VALID,0.0,
2019-10-06, 02:09:06,VALID,917.399,VALID,0.0,VALID,98.726,VALID,-0.011,VALID,19.146,VALID,88.0,VALID,0.0,
2019-10-06, 02:10:06,VALID,917.404,VALID,0.0,VALID,98.731,VALID,-0.009,VALID,19.152,VALID,86.0,VALID,0.0,
2019-10-06, 02:11:06,VALID,917.38,VALID,0.0,VALID,98.735,VALID,-0.004,VALID,19.162,VALID,86.0,VALID,0.0,
2019-10-06, 02:12:06,VALID,917.376,VALID,0.0,VALID,98.763,VALID,-0.003,VALID,19.169,VALID,86.0,VALID,0.0,
2019-10-06, 02:13:06,VALID,917.345,VALID,0.0,VALID,98.747,VALID,-0.004,VALID,19.183,VALID,86.0,VALID,0.0,
2019-10-06, 02:14:06,VALID,917.358,VALID,0.0,VALID,98.73,VALID,-0.008,VALID,19.192,VALID,86.0,VALID,0.0,
2019-10-06, 02:15:06,VALID,917.345,VALID,0.0,VALID,98.763,VALID,-0.024,VALID,19.214,VALID,86.0,VALID,0.0,
2019-10-06, 02:16:06,VALID,917.333,VALID,0.0,VALID,98.741,VALID,-0.022,VALID,19.244,VALID,86.0,VALID,0.0,
2019-10-06, 02:17:06,VALID,917.321,VALID,0.0,VALID,98.667,VALID,-0.01,VALID,19.246,VALID,116.0,VALID,0.0,
2019-10-06, 02:18:06,VALID,917.298,VALID,0.0,VALID,98.63,VALID,-0.019,VALID,19.24,VALID,116.0,VALID,0.0,
2019-10-06, 02:19:06,VALID,917.283,VALID,0.0,VALID,98.598,VALID,-0.012,VALID,19.24,VALID,116.0,VALID,0.0,
2019-10-06, 02:20:06,VALID,917.297,VALID,0.0,VALID,98.576,VALID,0.005,VALID,19.234,VALID,116.0,VALID,0.0,
2019-10-06, 02:21:06,VALID,917.267,VALID,0.0,VALID,98.591,VALID,-0.011,VALID,19.239,VALID,116.0,VALID,0.0,
2019-10-06, 02:22:06,VALID,917.287,VALID,0.0,VALID,98.618,VALID,-0.019,VALID,19.246,VALID,116.0,VALID,0.0,
2019-10-06, 02:23:06,VALID,917.276,VALID,0.0,VALID,98.639,VALID,-0.027,VALID,19.248,VALID,116.0,VALID,0.0,
2019-10-06, 02:24:06,VALID,917.274,VALID,0.0,VALID,98.653,VALID,-0.018,VALID,19.243,VALID,116.0,VALID,0.0,
2019-10-06, 02:25:06,VALID,917.274,VALID,0.0,VALID,98.479,VALID,-0.005,VALID,19.17,VALID,116.0,VALID,0.0,
2019-10-06, 02:26:06,VALID,917.249,VALID,0.0,VALID,98.161,VALID,-0.029,VALID,19.085,VALID,116.0,VALID,0.0,
2019-10-06, 02:27:06,VALID,917.248,VALID,0.0,VALID,97.925,VALID,-0.014,VALID,19.039,VALID,116.0,VALID,0.0,
2019-10-06, 02:28:06,VALID,917.263,VALID,0.0,VALID,97.902,VALID,0.0,VALID,19.039,VALID,116.0,VALID,0.0,
2019-10-06, 02:29:06,VALID,917.247,VALID,0.0,VALID,97.905,VALID,-0.001,VALID,19.035,VALID,115.0,VALID,0.0,
2019-10-06, 02:30:06,VALID,917.224,VALID,0.0,VALID,97.992,VALID,-0.023,VALID,19.046,VALID,116.0,VALID,0.0,
2019-10-06, 02:31:06,VALID,917.223,VALID,0.0,VALID,98.165,VALID,-0.017,VALID,19.075,VALID,115.0,VALID,0.0,
2019-10-06, 02:32:06,VALID,917.213,VALID,0.0,VALID,98.298,VALID,-0.011,VALID,19.086,VALID,116.0,VALID,0.0,
2019-10-06, 02:33:06,VALID,917.192,VALID,0.0,VALID,98.425,VALID,-0.009,VALID,19.1,VALID,115.0,VALID,0.0,
2019-10-06, 02:34:06,VALID,917.162,VALID,0.0,VALID,98.484,VALID,-0.009,VALID,19.081,VALID,115.0,VALID,0.0,
2019-10-06, 02:35:06,VALID,917.16,VALID,0.0,VALID,98.575,VALID,-0.007,VALID,19.073,VALID,112.0,VALID,0.0,
2019-10-06, 02:36:06,VALID,917.149,VALID,0.0,VALID,98.668,VALID,-0.003,VALID,19.072,VALID,109.0,VALID,0.0,
2019-10-06, 02:37:06,VALID,917.106,VALID,0.0,VALID,98.683,VALID,-0.024,VALID,19.01,VALID,116.0,VALID,0.122,
2019-10-06, 02:38:06,VALID,917.09,VALID,0.0,VALID,98.676,VALID,-0.011,VALID,18.947,VALID,129.0,VALID,0.432,
2019-10-06, 02:39:06,VALID,917.043,VALID,0.0,VALID,98.703,VALID,-0.026,VALID,18.935,VALID,130.0,VALID,0.698,
2019-10-06, 02:40:06,VALID,917.048,VALID,0.0,VALID,98.841,VALID,-0.037,VALID,18.946,VALID,130.0,VALID,0.821,
2019-10-06, 02:41:06,VALID,917.033,VALID,0.0,VALID,98.892,VALID,-0.032,VALID,18.943,VALID,122.0,VALID,0.809,
2019-10-06, 02:42:06,VALID,917.02,VALID,0.0,VALID,98.938,VALID,-0.04,VALID,18.919,VALID,121.0,VALID,0.987,
2019-10-06, 02:43:06,VALID,917.015,VALID,0.0,VALID,99.069,VALID,-0.025,VALID,18.93,VALID,120.0,VALID,0.948,
2019-10-06, 02:44:06,VALID,917.004,VALID,0.0,VALID,99.139,VALID,-0.003,VALID,18.912,VALID,113.0,VALID,0.709,
2019-10-06, 02:45:06,VALID,917.027,VALID,0.0,VALID,99.155,VALID,0.002,VALID,18.853,VALID,102.0,VALID,0.601,
2019-10-06, 02:46:06,VALID,917.024,VALID,0.0,VALID,99.175,VALID,-0.001,VALID,18.84,VALID,105.0,VALID,0.968,
2019-10-06, 02:47:06,VALID,917.03,VALID,0.0,VALID,99.286,VALID,0.004,VALID,18.873,VALID,102.0,VALID,1.187,
2019-10-06, 02:48:06,VALID,917.032,VALID,0.0,VALID,99.369,VALID,0.015,VALID,18.911,VALID,108.0,VALID,1.124,
2019-10-06, 02:49:06,VALID,917.029,VALID,0.0,VALID,99.414,VALID,0.019,VALID,18.917,VALID,103.0,VALID,0.792,
2019-10-06, 02:50:06,VALID,917.019,VALID,0.0,VALID,99.457,VALID,0.002,VALID,18.929,VALID,99.0,VALID,0.855,
2019-10-06, 02:51:06,VALID,917.009,VALID,0.0,VALID,99.502,VALID,0.02,VALID,18.948,VALID,99.0,VALID,0.646,
2019-10-06, 02:52:06,VALID,916.996,VALID,0.0,VALID,99.547,VALID,0.006,VALID,18.962,VALID,95.0,VALID,0.116,
2019-10-06, 02:53:06,VALID,916.996,VALID,0.0,VALID,99.59,VALID,0.011,VALID,18.964,VALID,81.0,VALID,0.457,
2019-10-06, 02:54:06,VALID,917.0,VALID,0.0,VALID,99.615,VALID,0.026,VALID,18.937,VALID,98.0,VALID,0.68,
2019-10-06, 02:55:06,VALID,917.012,VALID,0.0,VALID,99.658,VALID,0.007,VALID,18.925,VALID,105.0,VALID,0.532,
2019-10-06, 02:56:06,VALID,916.994,VALID,0.0,VALID,99.671,VALID,0.006,VALID,18.914,VALID,110.0,VALID,0.805,
2019-10-06, 02:57:06,VALID,916.982,VALID,0.0,VALID,99.728,VALID,0.03,VALID,18.932,VALID,122.0,VALID,0.811,
2019-10-06, 02:58:06,VALID,916.98,VALID,0.0,VALID,99.795,VALID,0.023,VALID,18.947,VALID,122.0,VALID,0.823,
2019-10-06, 02:59:06,VALID,916.957,VALID,0.0,VALID,99.823,VALID,0.015,VALID,18.934,VALID,110.0,VALID,0.396,
2019-10-06, 03:00:06,VALID,916.946,VALID,0.0,VALID,99.817,VALID,0.031,VALID,18.875,VALID,111.0,VALID,0.54,
2019-10-06, 03:01:06,VALID,916.963,VALID,0.0,VALID,99.799,VALID,0.021,VALID,18.787,VALID,117.0,VALID,0.967,
2019-10-06, 03:02:06,VALID,916.944,VALID,0.0,VALID,99.773,VALID,0.022,VALID,18.701,VALID,109.0,VALID,0.699,
2019-10-06, 03:03:06,VALID,916.94,VALID,0.0,VALID,99.759,VALID,0.01,VALID,18.643,VALID,112.0,VALID,1.291,
2019-10-06, 03:04:06,VALID,916.932,VALID,0.0,VALID,99.75,VALID,0.012,VALID,18.59,VALID,112.0,VALID,1.078,
2019-10-06, 03:05:06,VALID,916.944,VALID,0.0,VALID,99.765,VALID,0.027,VALID,18.576,VALID,107.0,VALID,1.052,
2019-10-06, 03:06:06,VALID,916.953,VALID,0.0,VALID,99.765,VALID,-0.01,VALID,18.574,VALID,108.0,VALID,0.947,
2019-10-06, 03:07:06,VALID,916.979,VALID,0.0,VALID,99.739,VALID,-0.016,VALID,18.524,VALID,104.0,VALID,0.911,
2019-10-06, 03:08:06,VALID,916.987,VALID,0.0,VALID,99.761,VALID,-0.032,VALID,18.536,VALID,117.0,VALID,1.2,
2019-10-06, 03:09:06,VALID,916.984,VALID,0.0,VALID,99.8,VALID,-0.032,VALID,18.572,VALID,119.0,VALID,0.213,
2019-10-06, 03:10:06,VALID,916.987,VALID,0.0,VALID,99.824,VALID,-0.019,VALID,18.637,VALID,127.0,VALID,0.0,
2019-10-06, 03:11:06,VALID,916.987,VALID,0.0,VALID,99.874,VALID,-0.04,VALID,18.681,VALID,122.0,VALID,0.0,
2019-10-06, 03:12:06,VALID,917.004,VALID,0.0,VALID,99.874,VALID,-0.016,VALID,18.673,VALID,116.0,VALID,0.0,
2019-10-06, 03:13:06,VALID,917.012,VALID,0.0,VALID,99.892,VALID,-0.021,VALID,18.696,VALID,116.0,VALID,0.0,
2019-10-06, 03:14:06,VALID,917.003,VALID,0.0,VALID,99.902,VALID,-0.018,VALID,18.709,VALID,112.0,VALID,0.0,
2019-10-06, 03:15:06,VALID,917.021,VALID,0.0,VALID,99.909,VALID,-0.021,VALID,18.727,VALID,110.0,VALID,0.0,
2019-10-06, 03:16:06,VALID,917.02,VALID,0.0,VALID,99.909,VALID,-0.023,VALID,18.754,VALID,124.0,VALID,0.0,
2019-10-06, 03:17:06,VALID,917.013,VALID,0.0,VALID,99.908,VALID,-0.029,VALID,18.792,VALID,124.0,VALID,0.0,
2019-10-06, 03:18:06,VALID,917.0,VALID,0.0,VALID,99.907,VALID,-0.032,VALID,18.794,VALID,117.0,VALID,0.0,
2019-10-06, 03:19:06,VALID,917.017,VALID,0.0,VALID,99.907,VALID,-0.035,VALID,18.782,VALID,119.0,VALID,0.0,
2019-10-06, 03:20:06,VALID,917.0,VALID,0.0,VALID,99.909,VALID,-0.026,VALID,18.806,VALID,122.0,VALID,0.0,
2019-10-06, 03:21:06,VALID,916.998,VALID,0.0,VALID,99.908,VALID,-0.009,VALID,18.818,VALID,119.0,VALID,0.0,
2019-10-06, 03:22:06,VALID,917.015,VALID,0.0,VALID,99.909,VALID,-0.015,VALID,18.829,VALID,133.0,VALID,0.0,
2019-10-06, 03:23:06,VALID,917.014,VALID,0.0,VALID,99.908,VALID,0.013,VALID,18.872,VALID,122.0,VALID,0.0,
2019-10-06, 03:24:06,VALID,917.006,VALID,0.0,VALID,99.908,VALID,-0.01,VALID,18.888,VALID,125.0,VALID,0.0,
2019-10-06, 03:25:06,VALID,917.029,VALID,0.0,VALID,99.909,VALID,-0.012,VALID,18.911,VALID,120.0,VALID,0.0,
2019-10-06, 03:26:06,VALID,917.033,VALID,0.0,VALID,99.912,VALID,-0.013,VALID,18.953,VALID,122.0,VALID,0.0,
2019-10-06, 03:27:06,VALID,917.034,VALID,0.0,VALID,99.909,VALID,-0.007,VALID,18.941,VALID,122.0,VALID,0.0,
2019-10-06, 03:28:06,VALID,917.026,VALID,0.0,VALID,99.911,VALID,-0.014,VALID,18.882,VALID,124.0,VALID,0.0,
2019-10-06, 03:29:06,VALID,917.058,VALID,0.0,VALID,99.909,VALID,-0.004,VALID,18.862,VALID,126.0,VALID,0.0,
2019-10-06, 03:30:06,VALID,917.065,VALID,0.0,VALID,99.908,VALID,-0.014,VALID,18.865,VALID,127.0,VALID,0.0,
2019-10-06, 03:31:06,VALID,917.073,VALID,0.0,VALID,99.908,VALID,-0.026,VALID,18.85,VALID,104.0,VALID,0.0,
2019-10-06, 03:32:06,VALID,917.088,VALID,0.0,VALID,99.907,VALID,-0.029,VALID,18.826,VALID,123.0,VALID,0.0,
2019-10-06, 03:33:06,VALID,917.093,VALID,0.0,VALID,99.909,VALID,-0.003,VALID,18.812,VALID,126.0,VALID,0.0,
2019-10-06, 03:34:06,VALID,917.1,VALID,0.0,VALID,99.911,VALID,-0.009,VALID,18.783,VALID,114.0,VALID,0.0,
2019-10-06, 03:35:06,VALID,917.089,VALID,0.0,VALID,99.908,VALID,-0.015,VALID,18.773,VALID,109.0,VALID,0.0,
2019-10-06, 03:36:06,VALID,917.109,VALID,0.0,VALID,99.907,VALID,-0.009,VALID,18.79,VALID,120.0,VALID,0.0,
2019-10-06, 03:37:06,VALID,917.113,VALID,0.0,VALID,99.91,VALID,0.002,VALID,18.793,VALID,112.0,VALID,0.0,
2019-10-06, 03:38:06,VALID,917.131,VALID,0.0,VALID,99.908,VALID,0.003,VALID,18.773,VALID,115.0,VALID,0.0,
2019-10-06, 03:39:06,VALID,917.138,VALID,0.0,VALID,99.911,VALID,0.001,VALID,18.771,VALID,120.0,VALID,0.0,
2019-10-06, 03:40:06,VALID,917.17,VALID,0.0,VALID,99.908,VALID,-0.016,VALID,18.769,VALID,113.0,VALID,0.0,